Location: Unspecified
(0.0000°N, 0.0000°E)
Time: 17:52:21
(UTC+00:00)

Vanguard 1 - Pass Details

Date: 09 October 2020
Orbit: 650 x 3833 km, 34.3° (Epoch: 26 October)

Event Time Altitude Azimuth Distance (km) Brightness Sun altitude
Rises 14:16:28 0° 234° (SW) 7,802 15.2 52.2°
Reaches altitude 10° 14:21:38 10° 234° (SW) 6,897 15.1 50.9°
Maximum altitude 14:45:36 84° 321° (NW) 3,405 13.7 45.0°
Drops below altitude 10° 15:01:57 10° 50° (NE) 4,999 13.4 41.0°
Sets 15:05:01 0° 51° (NE) 5,669 13.6 40.2°
